FW7515 Weather Reports


Display with metric or nautical units.
time (UTC)temp
F
wind
direction
speed
MPH
gust
MPH
rain 1hr
in
rain 24hr
in
rain mn
in
humidity
%
barometer
mb
20260901205518 101 130 3.0 9.0 0.00 0.00 0.00 36 1014.5
20260901205016 102 128 3.0 9.0 0.00 0.00 0.00 36 1014.6
20260901204534 100 165 2.0 4.0 0.00 0.00 0.00 38 1014.5
20260901204032 100 92 3.0 7.0 0.00 0.00 0.00 38 1014.6
20260901203550 99 97 4.0 9.0 0.00 0.00 0.00 38 1014.6
20260901203027 98 141 2.0 6.0 0.00 0.00 0.00 39 1014.6
20260901202525 98 85 6.0 11.0 0.00 0.00 0.00 39 1014.7
20260901202022 99 82 6.0 11.0 0.00 0.00 0.00 40 1014.9
20260901201540 98 108 7.0 15.0 0.00 0.00 0.00 41 1014.9
20260901201017 98 88 4.0 12.0 0.00 0.00 0.00 40 1014.9
20260901200535 98 95 3.0 5.0 0.00 0.00 0.00 40 1014.9
20260901200053 99 103 4.0 9.0 0.00 0.00 0.00 40 1015.1
20260901195531 98 89 5.0 11.0 0.00 0.00 0.00 41 1015.1
20260901195028 98 84 5.0 9.0 0.00 0.00 0.00 41 1014.9
20260901194524 98 95 5.0 9.0 0.00 0.00 0.00 40 1015.2
20260901194042 100 98 4.0 8.0 0.00 0.00 0.00 39 1015.4
20260901193519 100 106 4.0 10.0 0.00 0.00 0.00 39 1015.3
20260901193037 99 104 4.0 7.0 0.00 0.00 0.00 39 1015.3
20260901192533 99 93 5.0 9.0 0.00 0.00 0.00 38 1015.3
20260901192031 98 107 4.0 8.0 0.00 0.00 0.00 40 1015.5
20260901191609 100 93 5.0 12.0 0.00 0.00 0.00 39 1015.6
20260901191024 100 136 3.0 6.0 0.00 0.00 0.00 39 1015.7
20260901190520 101 94 4.0 11.0 0.00 0.00 0.00 40 1015.7
20260901190018 101 165 2.0 5.0 0.00 0.00 0.00 39 1015.8
20260901185516 99 165 3.0 9.0 0.00 0.00 0.00 39 1016.0
20260901185054 100 104 3.0 8.0 0.00 0.00 0.00 40 1016.0
20260901184531 100 216 2.0 6.0 0.00 0.00 0.00 40 1016.1
20260901184030 97 92 4.0 11.0 0.00 0.00 0.00 43 1016.2
20260901183527 97 78 5.0 12.0 0.00 0.00 0.00 44 1016.4
20260901183021 98 86 3.0 8.0 0.00 0.00 0.00 42 1016.6
20260901182519 99 120 4.0 8.0 0.00 0.00 0.00 42 1016.5
20260901182017 99 202 4.0 8.0 0.00 0.00 0.00 41 1016.6
20260901181615 98 119 3.0 8.0 0.00 0.00 0.00 41 1016.6
20260901181032 98 95 4.0 8.0 0.00 0.00 0.00 41 1016.7
20260901180528 97 138 3.0 12.0 0.00 0.00 0.00 43 1016.6
20260901180026 97 76 4.0 8.0 0.00 0.00 0.00 43 1016.8
20260901175544 98 146 3.0 11.0 0.00 0.00 0.00 42 1016.9
20260901175021 97 118 5.0 9.0 0.00 0.00 0.00 42 1016.9
20260901174519 98 141 2.0 8.0 0.00 0.00 0.00 42 1016.9
20260901174018 97 175 3.0 6.0 0.00 0.00 0.00 43 1016.9
20260901173534 96 99 3.0 6.0 0.00 0.00 0.00 45 1017.1
20260901173031 96 67 3.0 6.0 0.00 0.00 0.00 44 1017.1
20260901172528 97 101 4.0 8.0 0.00 0.00 0.00 44 1017.3
20260901172026 97 115 2.0 6.0 0.00 0.00 0.00 43 1017.2
20260901171523 97 148 2.0 6.0 0.00 0.00 0.00 43 1017.4
20260901171021 98 113 3.0 5.0 0.00 0.00 0.00 43 1017.4
20260901170519 97 178 3.0 5.0 0.00 0.00 0.00 43 1017.5
20260901170017 96 112 3.0 7.0 0.00 0.00 0.00 44 1017.5
20260901165515 97 160 3.0 11.0 0.00 0.00 0.00 44 1017.6
20260901165034 97 226 3.0 10.0 0.00 0.00 0.00 44 1017.7
20260901164532 97 129 2.0 6.0 0.00 0.00 0.00 44 1017.9
20260901164030 96 130 2.0 7.0 0.00 0.00 0.00 45 1018.0
20260901163529 96 142 3.0 9.0 0.00 0.00 0.00 45 1017.8
20260901163027 95 229 2.0 6.0 0.00 0.00 0.00 46 1017.7
20260901162525 95 221 3.0 8.0 0.00 0.00 0.00 46 1017.9
20260901162043 95 232 3.0 7.0 0.00 0.00 0.00 45 1017.8
20260901161521 95 168 3.0 6.0 0.00 0.00 0.00 46 1017.7
20260901161019 94 191 3.0 6.0 0.00 0.00 0.00 47 1017.7
20260901160557 95 220 3.0 7.0 0.00 0.00 0.00 47 1017.7
20260901160015 94 233 3.0 7.0 0.00 0.00 0.00 48 1017.7
20260901155533 93 217 2.0 6.0 0.00 0.00 0.00 48 1017.7
20260901155031 93 222 3.0 6.0 0.00 0.00 0.00 49 1017.7
20260901154530 93 219 3.0 10.0 0.00 0.00 0.00 49 1017.8
20260901154046 93 222 2.0 6.0 0.00 0.00 0.00 49 1017.6
20260901153524 93 219 2.0 6.0 0.00 0.00 0.00 51 1017.5
20260901153021 92 213 3.0 6.0 0.00 0.00 0.00 52 1017.5
20260901152519 92 246 3.0 6.0 0.00 0.00 0.00 52 1017.7
20260901152016 91 219 2.0 4.0 0.00 0.00 0.00 53 1017.6
20260901151533 91 231 3.0 7.0 0.00 0.00 0.00 53 1017.7
20260901151043 91 203 2.0 4.0 0.00 0.00 0.00 53 1017.7
20260901150528 91 217 2.0 9.0 0.00 0.00 0.00 54 1017.7
20260901150026 91 225 3.0 7.0 0.00 0.00 0.00 54 1017.6
20260901145523 91 212 2.0 5.0 0.00 0.00 0.00 54 1017.8
20260901145021 90 164 2.0 5.0 0.00 0.00 0.00 55 1017.8
20260901144518 90 228 2.0 5.0 0.00 0.00 0.00 55 1017.7
20260901144016 89 193 2.0 5.0 0.00 0.00 0.00 56 1017.7
20260901143553 88 209 2.0 6.0 0.00 0.00 0.00 58 1017.7
20260901143031 89 223 2.0 8.0 0.00 0.00 0.00 57 1017.8
20260901142548 88 181 1.0 3.0 0.00 0.00 0.00 58 1017.9
20260901142026 87 183 1.0 3.0 0.00 0.00 0.00 60 1017.8
20260901141524 87 136 2.0 4.0 0.00 0.00 0.00 60 1017.9
20260901141021 87 140 1.0 6.0 0.00 0.00 0.00 61 1017.9
20260901140519 86 181 2.0 6.0 0.00 0.00 0.00 61 1017.7
20260901140016 86 158 2.0 5.0 0.00 0.00 0.00 61 1017.8
20260901135554 86 166 2.0 4.0 0.00 0.00 0.00 61 1017.8
20260901135032 86 126 2.0 4.0 0.00 0.00 0.00 62 1017.8
20260901134529 86 139 2.0 4.0 0.00 0.00 0.00 62 1017.8
20260901134027 85 161 2.0 4.0 0.00 0.00 0.00 63 1017.6
20260901133525 85 145 2.0 4.0 0.00 0.00 0.00 63 1017.7
20260901133022 85 132 1.0 4.0 0.00 0.00 0.00 64 1017.6
20260901132520 84 130 2.0 5.0 0.00 0.00 0.00 64 1017.5
20260901132018 84 145 2.0 4.0 0.00 0.00 0.00 65 1017.5
20260901131516 83 179 1.0 4.0 0.00 0.00 0.00 67 1017.5
20260901131055 82 234 0.0 3.0 0.00 0.00 0.00 68 1017.6
20260901130531 82 108 1.0 3.0 0.00 0.00 0.00 67 1017.5
20260901130029 83 89 1.0 3.0 0.00 0.00 0.00 66 1017.3
20260901125527 82 43 2.0 4.0 0.00 0.00 0.00 66 1017.3
20260901125024 82 92 1.0 3.0 0.00 0.00 0.00 67 1017.2
20260901124522 82 154 1.0 3.0 0.00 0.00 0.00 67 1017.1
20260901124020 81 75 0.0 2.0 0.00 0.00 0.00 68 1017.2
20260901123518 81 92 1.0 2.0 0.00 0.00 0.00 68 1017.1
20260901123057 81 184 1.0 2.0 0.00 0.00 0.00 68 1017.0
20260901122533 81 135 2.0 3.0 0.00 0.00 0.00 69 1017.0
20260901122031 81 165 1.0 3.0 0.00 0.00 0.00 68 1017.1
20260901121528 81 86 1.0 2.0 0.00 0.00 0.00 68 1017.0
20260901121026 81 43 2.0 3.0 0.00 0.00 0.00 67 1016.9
20260901120524 81 218 1.0 4.0 0.00 0.00 0.00 67 1016.7
20260901120022 81 264 1.0 2.0 0.00 0.00 0.00 67 1016.6
20260901115521 82 57 1.0 3.0 0.00 0.00 0.00 66 1016.7
20260901115019 82 207 2.0 4.0 0.00 0.00 0.00 66 1016.7
20260901114517 82 218 2.0 4.0 0.00 0.00 0.00 66 1016.5
20260901114015 82 206 1.0 6.0 0.00 0.00 0.00 66 1016.5
20260901113554 83 212 3.0 9.0 0.00 0.00 0.00 65 1016.5
20260901113052 83 209 3.0 6.0 0.00 0.00 0.00 64 1016.4
20260901112550 83 222 3.0 9.0 0.00 0.00 0.00 65 1016.5
20260901112028 83 222 3.0 6.0 0.00 0.00 0.00 65 1016.5
20260901111607 82 266 2.0 6.0 0.00 0.00 0.00 65 1016.4
20260901111025 82 276 2.0 5.0 0.00 0.00 0.00 66 1016.4
20260901110523 82 205 2.0 4.0 0.00 0.00 0.00 66 1016.4
20260901110021 82 239 1.0 4.0 0.00 0.00 0.00 66 1016.4
20260901105519 82 210 1.0 3.0 0.00 0.00 0.00 65 1016.3
20260901105017 83 217 2.0 5.0 0.00 0.00 0.00 65 1016.2
20260901104515 82 225 2.0 3.0 0.00 0.00 0.00 65 1016.3
20260901104034 82 233 1.0 5.0 0.00 0.00 0.00 65 1016.4
20260901103531 82 220 1.0 3.0 0.00 0.00 0.00 65 1016.3
20260901103030 82 216 1.0 4.0 0.00 0.00 0.00 65 1016.4
20260901102527 82 225 1.0 2.0 0.00 0.00 0.00 65 1016.2
20260901102025 82 225 1.0 3.0 0.00 0.00 0.00 65 1016.3
20260901101523 82 211 1.0 4.0 0.00 0.00 0.00 65 1016.5
20260901101022 83 209 1.0 3.0 0.00 0.00 0.00 64 1016.2
20260901100521 83 224 1.0 5.0 0.00 0.00 0.00 64 1016.2
20260901100018 83 225 1.0 3.0 0.00 0.00 0.00 64 1016.1
20260901095516 83 223 1.0 4.0 0.00 0.00 0.00 64 1016.2
20260901095034 83 222 2.0 5.0 0.00 0.00 0.00 63 1016.4
20260901094532 83 222 2.0 6.0 0.00 0.00 0.00 63 1016.4
20260901094031 83 226 1.0 4.0 0.00 0.00 0.00 63 1016.4
20260901093549 83 211 1.0 6.0 0.00 0.00 0.00 63 1016.4
20260901093027 83 205 1.0 4.0 0.00 0.00 0.00 63 1016.7
20260901092526 83 201 1.0 3.0 0.00 0.00 0.00 62 1016.6
20260901092025 83 214 1.0 5.0 0.00 0.00 0.00 62 1016.8
20260901091523 83 209 1.0 2.0 0.00 0.00 0.00 61 1016.7
20260901091042 83 203 1.0 4.0 0.00 0.00 0.00 61 1016.5
20260901090520 83 211 1.0 4.0 0.00 0.00 0.00 61 1016.4
20260901090018 83 196 2.0 4.0 0.00 0.00 0.00 60 1016.5
20260901085516 84 202 1.0 3.0 0.00 0.00 0.00 60 1016.3
20260901085034 84 204 2.0 4.0 0.00 0.00 0.00 59 1016.4
20260901084553 84 210 2.0 6.0 0.00 0.00 0.00 58 1016.2
20260901084031 84 216 2.0 6.0 0.00 0.00 0.00 58 1016.1
20260901083529 84 227 3.0 6.0 0.00 0.00 0.00 58 1016.1
20260901083027 84 209 2.0 5.0 0.00 0.00 0.00 58 1016.3
20260901082525 84 223 3.0 7.0 0.00 0.00 0.00 58 1016.4
20260901082023 84 208 2.0 5.0 0.00 0.00 0.00 58 1016.4
20260901081521 84 192 1.0 4.0 0.00 0.00 0.00 58 1016.2
20260901081021 84 196 2.0 4.0 0.00 0.00 0.00 57 1016.2
20260901080517 84 167 2.0 4.0 0.00 0.00 0.00 57 1016.2
20260901080034 84 184 1.0 4.0 0.00 0.00 0.00 57 1016.1
20260901075533 83 166 2.0 4.0 0.00 0.00 0.00 57 1016.0
20260901075030 83 177 1.0 4.0 0.00 0.00 0.00 57 1016.0
20260901074528 83 182 1.0 3.0 0.00 0.00 0.00 57 1016.2
20260901074027 83 158 1.0 2.0 0.00 0.00 0.00 57 1016.2
20260901073525 83 130 1.0 3.0 0.00 0.00 0.00 56 1016.2
20260901073023 83 145 0.0 2.0 0.00 0.00 0.00 56 1016.2
20260901072522 83 171 0.0 2.0 0.00 0.00 0.00 56 1016.2
20260901072020 83 123 1.0 2.0 0.00 0.00 0.00 55 1016.1
20260901071539 83 124 1.0 3.0 0.00 0.00 0.00 54 1016.0
20260901071037 83 140 0.0 2.0 0.00 0.00 0.00 54 1015.9
20260901070516 83 176 0.0 2.0 0.00 0.00 0.00 54 1015.9
20260901070034 83 182 0.0 2.0 0.00 0.00 0.00 54 1016.0
20260901065532 83 153 1.0 2.0 0.00 0.00 0.00 54 1015.9
20260901065030 83 134 0.0 1.0 0.00 0.00 0.00 54 1016.0
20260901064528 83 157 0.0 2.0 0.00 0.00 0.00 53 1015.9
20260901064027 83 0.0 2.0 0.00 0.00 0.00 53 1015.8
20260901063526 83 148 0.0 1.0 0.00 0.00 0.00 52 1015.7
20260901063024 83 182 0.0 2.0 0.00 0.00 0.00 52 1015.7
20260901062522 83 190 0.0 2.0 0.00 0.00 0.00 52 1015.7
20260901062021 83 176 0.0 2.0 0.00 0.00 0.00 52 1015.6
20260901061519 84 156 1.0 2.0 0.00 0.00 0.00 51 1015.7
20260901061018 84 159 1.0 2.0 0.00 0.00 0.00 50 1015.6
20260901060555 84 177 0.0 2.0 0.00 0.00 0.00 51 1015.6
20260901060033 83 175 0.0 2.0 0.00 0.00 0.00 51 1015.4
20260901055531 84 129 0.0 2.0 0.00 0.00 0.00 50 1015.4
20260901055029 84 0.0 1.0 0.00 0.00 0.00 50 1015.4
20260901054527 84 181 0.0 2.0 0.00 0.00 0.00 49 1015.2
20260901054026 84 186 1.0 2.0 0.00 0.00 0.00 50 1015.3
20260901053524 84 153 0.0 1.0 0.00 0.00 0.00 49 1015.3
20260901053022 85 173 0.0 2.0 0.00 0.00 0.00 49 1015.4
20260901052520 85 144 0.0 2.0 0.00 0.00 0.00 48 1015.1
20260901052018 85 175 0.0 2.0 0.00 0.00 0.00 47 1015.1
20260901051516 85 178 1.0 2.0 0.00 0.00 0.00 47 1015.0
20260901051034 85 174 1.0 2.0 0.00 0.00 0.00 47 1015.0
20260901050533 84 180 0.0 1.0 0.00 0.00 0.00 48 1015.2
20260901050031 85 0.0 0.0 0.00 0.00 0.00 48 1015.1
20260901045549 85 0.0 0.0 0.00 0.00 0.00 47 1015.0
20260901045027 86 0.0 1.0 0.00 0.00 0.00 46 1014.9
20260901044526 86 167 1.0 2.0 0.00 0.00 0.00 46 1014.8
20260901044023 86 182 1.0 2.0 0.00 0.00 0.00 46 1015.0
20260901043521 86 178 1.0 2.0 0.00 0.00 0.00 46 1015.0
20260901043039 86 177 0.0 2.0 0.00 0.00 0.00 46 1015.0
20260901042517 86 190 1.0 2.0 0.00 0.00 0.00 47 1014.9
20260901042015 86 188 0.0 2.0 0.00 0.00 0.00 47 1014.9
20260901041553 87 176 0.0 2.0 0.00 0.00 0.00 46 1014.9
20260901041031 87 163 0.0 1.0 0.00 0.00 0.00 46 1015.2
20260901040529 87 0.0 1.0 0.00 0.00 0.00 46 1015.1
20260901040027 87 177 0.0 2.0 0.00 0.00 0.00 45 1015.2
20260901035524 87 190 0.0 2.0 0.00 0.00 0.00 45 1015.1
20260901035023 88 176 0.0 2.0 0.00 0.00 0.00 44 1015.1
20260901034522 88 0.0 2.0 0.00 0.00 0.00 44 1015.0
20260901034020 88 180 1.0 2.0 0.00 0.00 0.00 44 1015.0
20260901033517 88 190 1.0 2.0 0.00 0.00 0.00 44 1015.0
20260901033015 88 172 1.0 2.0 0.00 0.00 0.00 43 1015.0
20260901032534 88 147 1.0 2.0 0.00 0.00 0.00 43 1015.0
20260901032032 89 139 0.0 2.0 0.00 0.00 0.00 44 1014.9
20260901031530 89 187 1.0 2.0 0.00 0.00 0.00 43 1014.8
20260901031028 89 184 0.0 2.0 0.00 0.00 0.00 43 1015.0
20260901030527 89 184 0.0 2.0 0.00 0.00 0.00 43 1015.0
20260901030025 89 177 1.0 2.0 0.00 0.00 0.00 42 1014.8
20260901025543 90 186 1.0 2.0 0.00 0.00 0.00 42 1014.8
20260901025021 90 189 0.0 3.0 0.00 0.00 0.00 42 1014.8
20260901024520 90 178 1.0 2.0 0.00 0.00 0.00 42 1014.6
20260901024018 90 179 0.0 2.0 0.00 0.00 0.00 42 1014.7
20260901023516 90 193 1.0 2.0 0.00 0.00 0.00 41 1014.6
20260901023034 90 179 0.0 2.0 0.00 0.00 0.00 41 1014.5
20260901022533 91 171 0.0 2.0 0.00 0.00 0.00 41 1014.4
20260901022031 91 178 1.0 2.0 0.00 0.00 0.00 41 1014.3
20260901021529 91 182 1.0 2.0 0.00 0.00 0.00 40 1014.3
20260901021027 91 186 1.0 2.0 0.00 0.00 0.00 40 1014.4
20260901020526 92 182 0.0 2.0 0.00 0.00 0.00 40 1014.3
20260901020024 92 116 0.0 2.0 0.00 0.00 0.00 39 1014.2
20260901015523 92 188 0.0 2.0 0.00 0.00 0.00 39 1014.1
20260901015021 92 130 1.0 3.0 0.00 0.00 0.00 38 1014.1
20260901014519 92 183 1.0 4.0 0.00 0.00 0.00 38 1014.2
20260901014018 93 164 1.0 2.0 0.00 0.00 0.00 38 1014.0
20260901013516 93 192 0.0 2.0 0.00 0.00 0.00 38 1013.9
20260901013034 93 201 1.0 2.0 0.00 0.00 0.00 37 1013.9
20260901012532 94 198 1.0 3.0 0.00 0.00 0.00 37 1013.9
20260901012030 94 180 1.0 2.0 0.00 0.00 0.00 36 1013.9
20260901011548 94 203 1.0 4.0 0.00 0.00 0.00 36 1013.8
20260901011026 95 175 1.0 3.0 0.00 0.00 0.00 36 1013.7
20260901010544 95 185 2.0 4.0 0.00 0.00 0.00 35 1013.7
20260901010022 95 165 1.0 4.0 0.00 0.00 0.00 35 1013.8
20260901005520 95 169 3.0 8.0 0.00 0.00 0.00 35 1013.8
20260901005017 96 188 2.0 4.0 0.00 0.00 0.00 35 1013.9
20260901004535 96 186 2.0 6.0 0.00 0.00 0.00 35 1013.9
20260901004033 96 155 3.0 7.0 0.00 0.00 0.00 35 1013.9
20260901003530 97 140 4.0 12.0 0.00 0.00 0.00 34 1013.8
20260901003028 97 153 3.0 8.0 0.00 0.00 0.00 34 1013.8
20260901002528 97 144 3.0 7.0 0.00 0.00 0.00 34 1013.7
20260901002023 98 120 4.0 8.0 0.00 0.00 0.00 34 1013.7
20260901001521 98 145 2.0 5.0 0.00 0.00 0.00 34 1013.7
20260901001018 98 140 3.0 5.0 0.00 0.00 0.00 34 1013.8
20260901000516 98 142 2.0 6.0 0.00 0.00 0.00 34 1013.7
20260901000035 98 160 3.0 8.0 0.00 0.00 0.00 33 1013.8
20260831235553 98 144 2.0 11.0 0.00 0.00 0.00 33 1013.8
20260831235051 98 150 3.0 9.0 0.00 0.00 0.00 34 1013.7
20260831234530 98 140 3.0 6.0 0.00 0.00 0.00 33 1013.8
20260831234028 99 189 2.0 6.0 0.00 0.00 0.00 33 1013.7
20260831233526 99 182 2.0 5.0 0.00 0.00 0.00 33 1013.6
20260831233024 99 175 2.0 6.0 0.00 0.00 0.00 33 1013.6
20260831232521 99 173 3.0 7.0 0.00 0.00 0.00 33 1013.6
20260831232018 99 150 3.0 6.0 0.00 0.00 0.00 32 1013.6
20260831231535 99 170 2.0 5.0 0.00 0.00 0.00 33 1013.6
20260831231033 100 192 2.0 5.0 0.00 0.00 0.00 32 1013.7
20260831230531 100 167 2.0 5.0 0.00 0.00 0.00 31 1013.7
20260831230049 100 148 4.0 8.0 0.00 0.00 0.00 32 1013.7
20260831225527 100 154 3.0 8.0 0.00 0.00 0.00 31 1013.8
20260831225025 100 194 3.0 6.0 0.00 0.00 0.00 31 1013.8
20260831224524 99 132 3.0 9.0 0.00 0.00 0.00 32 1013.9
20260831224022 100 128 4.0 8.0 0.00 0.00 0.00 32 1013.9
20260831223520 101 162 3.0 6.0 0.00 0.00 0.00 32 1013.9
20260831223017 101 150 4.0 12.0 0.00 0.00 0.00 31 1014.0
20260831222535 101 141 4.0 12.0 0.00 0.00 0.00 31 1014.0
20260831222033 102 190 3.0 8.0 0.00 0.00 0.00 31 1014.1
20260831221551 101 168 3.0 5.0 0.00 0.00 0.00 31 1014.1
20260831221029 101 167 3.0 8.0 0.00 0.00 0.00 32 1014.1
20260831220547 101 151 3.0 9.0 0.00 0.00 0.00 31 1014.1
20260831220024 101 162 2.0 8.0 0.00 0.00 0.00 31 1014.4
20260831215522 100 131 4.0 10.0 0.00 0.00 0.00 32 1014.4
20260831215020 100 119 4.0 11.0 0.00 0.00 0.00 33 1014.4
20260831214519 100 131 4.0 12.0 0.00 0.00 0.00 33 1014.4
20260831214016 100 113 4.0 6.0 0.00 0.00 0.00 33 1014.5
20260831213555 101 138 3.0 6.0 0.00 0.00 0.00 32 1014.5
20260831213033 101 182 3.0 7.0 0.00 0.00 0.00 32 1014.5
20260831212530 101 116 4.0 9.0 0.00 0.00 0.00 33 1014.4
20260831212029 101 154 3.0 8.0 0.00 0.00 0.00 33 1014.6
20260831211527 102 181 4.0 9.0 0.00 0.00 0.00 32 1014.7
20260831211025 101 205 4.0 9.0 0.00 0.00 0.00 33 1014.8
20260831210523 100 151 4.0 12.0 0.00 0.00 0.00 33 1014.7
20260831210021 99 112 4.0 7.0 0.00 0.00 0.00 34 1014.8